Regional Weather Roundup
Issued by NWS Midland/Odessa, TX

Skip options and go directly to product.
Home | Oldest Version | Next Version | Current Version | All | Text Only | Save Text | Print | Product List | Glossary On

Skip product version selection by date and time.   
693
ASUS44 KMAF 290601
RWRMAF
MIDLAND AREA WEATHER ROUNDUP
NATIONAL WEATHER SERVICE MIDLAND TX
100 AM CDT FRI MAY 29 2015

...IN SOUTHWEST TEXAS AND SOUTHEAST NEW MEXICO...

CITY           SKY/WX    TMP DP  RH WIND       PRES   REMARKS
ALPINE         CLEAR     55  52  89 CALM      30.09R
ANDREWS        FAIR      60  57  89 SE10      29.97F
ARTESIA        PTCLDY    63  54  72 S10       29.99R
BIG SPRING     CLOUDY    64  60  87 N9        29.99R
CARLSBAD       PTCLDY    60  54  80 S3        29.98S
DRYDEN         NOT AVBL
FORT STOCKTON  MOCLDY    63  56  78 S16       29.95F
GUAD PASS      CLEAR     59  52  77 NE28      30.08F
HOBBS          CLOUDY    59  57  94 E7        30.00F
MARFA          CLEAR     55  48  76 NW6       30.07S
MIDLAND AIRPK  CLOUDY    64  58  82 NE8       29.98F
MIDLAND INTL   CLOUDY    63  57  81 N12       29.98F
ODESSA         CLOUDY    62  57  83 NE15      29.99S
PECOS          MOCLDY    62  58  86 N9        29.96R
PRESIDIO       FAIR      82  56  40 MISG      29.90S
SEMINOLE       CLOUDY    61  55  81 S6        29.98F
SNYDER         CLOUDY    61  59  94 SW6       30.00R
WINK           CLOUDY    63  56  78 NE12      29.97S
$$
...OTHER STATIONS IN TEXAS...

CITY           SKY/WX    TMP DP  RH WIND       PRES   REMARKS
ABILENE        TSTM      63  62  97 S16       29.97F
AMARILLO       CLOUDY    60  51  72 SE13      30.00F
AUSTIN         CLOUDY    76  74  93 S13       29.99R
BROWNSVILLE    CLOUDY    80  76  87 SE12      29.96F
CORPUS CHRISTI CLOUDY    79  74  84 SE12      29.96F
DALLAS FTW     TSTM      65  65 100 N16       29.92S FOG
DEL RIO        HVY RAIN  65  62  90 VRB3      30.00R FOG
EL PASO        CLEAR     84  16   8 W9        29.96S
HOUSTON INT    MOCLDY    78  74  87 S6        29.99S
LUBBOCK        CLOUDY    61  55  81 NE17      29.93R
SAN ANGELO     LGT RAIN  63  60  90 S8        29.92F
SAN ANTONIO    TSTM      65  62  90 N25G37    30.10R FOG
WACO           CLOUDY    77  72  84 S16       29.92F
WICHITA FALLS  NOT AVBL
$$
...OTHER LOCATIONS IN NEW MEXICO...

CITY           SKY/WX    TMP DP  RH WIND       PRES   REMARKS
ALAMAGORDO     CLEAR     73  18  12 SE14      29.96S
ALBUQUERQUE    CLEAR     71  31  22 N9        30.07S
CANNON AFB     NOT AVBL
CLOVIS         CLOUDY    57  52  82 NE9       30.00R
HOLLOMAN AFB   CLEAR     70  20  15 SE8       29.93S
ROSWELL        MOCLDY    62  54  74 SW7       29.99R
RUIDOSO        PTCLDY    57  37  47 CALM      30.18R
SANTA FE       CLEAR     59  28  30 N13       30.12S
TRUTH OR CONSE CLEAR     73  15  11 NW13      30.03R
TUCUMCARI      CLOUDY    60  53  77 SE6       30.02R
$$

USA.gov is the U.S. government's official web portal to all federal, state and local government web resources and services.